GW2619 Weather Reports


time (UTC)temp
C
wind
direction
speed
KPH
gust
KPH
rain 1hr
cm
rain 24hr
cm
rain mn
cm
humidity
%
barometer
mb
20260507014508 13 36 3.2 8.0 0.00 0.00 0.00 86 1022.4
20260507013005 13 284 6.4 14.5 0.00 0.00 0.00 85 1022.6
20260507011505 13 319 6.4 12.9 0.00 0.00 0.00 84 1022.6
20260507010007 13 330 4.8 12.9 0.00 0.00 0.00 85 1022.7
20260507004508 13 316 4.8 12.9 0.00 0.00 0.00 85 1022.6
20260507003005 13 324 3.2 12.9 0.00 0.00 0.00 85 1022.7
20260507001506 13 315 4.8 12.9 0.00 0.00 0.00 85 1022.8
20260507000011 13 297 6.4 12.9 0.00 0.00 0.00 84 1022.8
20260506233006 13 315 4.8 14.5 0.00 0.00 0.00 85 1023.0
20260506231507 13 233 4.8 14.5 0.00 0.00 0.00 85 1023.1
20260506230009 13 280 8.0 14.5 0.00 0.00 0.00 84 1023.2
20260506224503 13 276 4.8 14.5 0.00 0.00 0.00 83 1023.2
20260506223005 13 267 3.2 8.0 0.00 0.00 0.00 84 1023.3
20260506221506 13 245 4.8 11.3 0.00 0.00 0.00 81 1023.4
20260506220006 14 237 6.4 12.9 0.00 0.00 0.00 80 1023.3
20260506214506 14 226 8.0 14.5 0.00 0.00 0.00 80 1023.1
20260506211505 13 218 6.4 11.3 0.00 0.00 0.00 80 1023.1
20260506210009 13 235 6.4 14.5 0.00 0.00 0.00 79 1023.1
20260506204512 13 240 8.0 14.5 0.00 0.00 0.00 79 1023.1
20260506203006 13 218 8.0 12.9 0.00 0.00 0.00 79 1023.0
20260506201506 13 231 6.4 12.9 0.00 0.00 0.00 79 1022.9
20260506200008 13 208 4.8 11.3 0.00 0.00 0.00 79 1022.9
20260506194507 13 274 6.4 11.3 0.00 0.00 0.00 79 1023.0
20260506193004 13 210 9.7 12.9 0.00 0.00 0.00 79 1023.0
20260506191505 13 239 3.2 11.3 0.00 0.00 0.00 80 1022.9
20260506190008 13 231 8.0 14.5 0.00 0.00 0.00 80 1023.0
20260506184504 13 235 6.4 11.3 0.00 0.00 0.00 81 1022.8
20260506183007 13 228 9.7 16.1 0.00 0.00 0.00 81 1022.8
20260506181504 13 231 9.7 12.9 0.00 0.00 0.00 81 1022.7
20260506180005 13 239 6.4 12.9 0.00 0.00 0.00 82 1022.6
20260506173007 13 293 3.2 6.4 0.00 0.00 0.00 82 1022.2
20260506171504 13 213 3.2 6.4 0.00 0.00 0.00 82 1022.0
20260506170006 13 205 3.2 4.8 0.00 0.00 0.00 82 1021.9
20260506164503 13 205 1.6 6.4 0.00 0.00 0.00 82 1021.8
20260506163003 13 81 3.2 6.4 0.00 0.00 0.00 82 1021.6
20260506160005 12 260 3.2 6.4 0.00 0.00 0.00 84 1021.7
20260506154503 12 218 3.2 9.7 0.00 0.00 0.00 86 1021.7
20260506153004 12 134 1.6 4.8 0.00 0.00 0.00 88 1021.3
20260506151503 12 206 1.6 8.0 0.00 0.00 0.00 88 1021.5
20260506150007 12 110 1.6 6.4 0.00 0.00 0.00 90 1021.3
20260506144503 11 79 4.8 9.7 0.00 0.00 0.00 90 1021.0
20260506143006 11 108 3.2 9.7 0.00 0.00 0.00 90 1021.0
20260506141505 11 113 0.0 12.9 0.00 0.00 0.00 90 1021.2
20260506140005 11 64 0.0 1.6 0.00 0.00 0.00 90 1021.4
20260506134502 11 233 1.6 4.8 0.00 0.00 0.00 90 1021.3
20260506133006 11 233 3.2 4.8 0.00 0.00 0.00 90 1021.2
20260506131502 11 233 3.2 4.8 0.00 0.00 0.00 90 1020.9
20260506124506 11 233 1.6 4.8 0.00 0.00 0.00 90 1020.7
20260506123003 11 233 1.6 3.2 0.00 0.00 0.00 90 1020.5
20260506120008 11 233 0.0 1.6 0.00 0.00 0.00 90 1020.4
20260506114503 11 233 0.0 1.6 0.00 0.00 0.00 90 1020.3
20260506113003 11 233 1.6 4.8 0.00 0.00 0.00 90 1020.1
20260506111505 11 233 1.6 8.0 0.00 0.00 0.00 89 1020.2
20260506110005 11 233 4.8 8.0 0.00 0.00 0.00 89 1020.2
20260506104502 11 233 4.8 9.7 0.00 0.00 0.00 89 1020.1
20260506103002 11 233 4.8 8.0 0.00 0.00 0.00 88 1020.1
20260506101502 12 233 3.2 8.0 0.00 0.00 0.00 88 1019.8
20260506094502 12 256 1.6 4.8 0.00 0.00 0.00 88 1019.8
20260506093002 12 236 3.2 6.4 0.00 0.00 0.00 87 1019.6
20260506091503 12 235 3.2 6.4 0.00 0.00 0.00 87 1019.4
20260506084501 12 226 6.4 8.0 0.00 0.00 0.00 87 1019.4
20260506081502 12 279 3.2 8.0 0.00 0.00 0.00 87 1019.1
20260506073008 12 272 1.6 4.8 0.00 0.00 0.00 86 1018.8
20260506061506 12 272 3.2 4.8 0.00 0.00 0.00 85 1018.4
20260506044508 12 272 3.2 4.8 0.00 0.00 0.00 84 1018.3
20260506043006 13 272 3.2 6.4 0.00 0.00 0.00 84 1018.1
20260506040006 13 293 3.2 6.4 0.00 0.00 0.00 83 1017.9
20260506034504 13 307 3.2 8.0 0.00 0.00 0.00 83 1017.7
20260506033022 13 314 3.2 4.8 0.00 0.00 0.00 83 1017.6
20260506031505 13 293 3.2 8.0 0.00 0.00 0.00 82 1017.3
20260506024503 13 297 1.6 6.4 0.00 0.00 0.00 81 1017.2
20260506023005 13 339 3.2 9.7 0.00 0.00 0.00 80 1017.1
20260506021504 13 338 3.2 12.9 0.00 0.00 0.00 80 1017.0
20260506020010 14 325 4.8 12.9 0.00 0.00 0.00 79 1017.0